Wind_Speed
8 7 8 9 10 11 12 13 13 13 12 12 12 11 11 11 11 10 10 9 9 8 8 8 8 8 8 8 8 8 7 7 7 6 6 6 7 6 6 5 5 5 5
7 7 7 8 9 10 11 12 12 13 13 12 12 11 11 11 10 10 10 10 9 9 8 9 8 8 8 8 8 8 7 7 7 6 6 6 7 6 6 6 6 6 5
7 7 7 8 9 9 10 11 12 12 12 11 11 11 10 10 10 10 10 10 10 9 9 9 8 9 8 8 8 7 7 7 6 6 6 6 6 5 5 5 6 5 5
7 7 7 8 8 9 10 10 10 10 11 10 10 10 9 9 10 10 10 10 9 9 9 9 8 8 8 8 7 7 7 6 6 6 6 5 5 5 5 5 5 5 5
6 6 7 8 8 8 9 9 9 9 9 9 9 9 9 9 9 9 9 9 9 9 9 8 8 8 8 7 7 6 6 6 6 6 6 5 5 5 5 5 5 5 4
5 6 6 7 7 8 8 8 8 8 8 8 8 8 9 9 9 9 8 8 8 8 8 8 8 8 8 7 6 6 5 5 5 6 6 5 5 5 5 5 5 4 4
4 5 6 6 6 7 7 7 7 7 8 8 7 8 8 8 8 8 8 8 7 7 8 8 8 7 7 6 6 5 5 5 5 6 5 5 5 5 5 5 5 4 4
4 5 6 6 6 6 6 7 7 7 7 7 7 7 7 7 7 7 6 6 6 6 7 7 7 7 6 6 5 5 5 5 5 5 5 5 5 5 5 5 5 5 4
5 5 6 6 6 6 6 6 6 6 6 6 6 6 6 6 6 6 6 5 5 6 6 6 6 6 6 6 6 6 5 5 5 5 5 5 5 5 5 5 5 5 4
5 6 5 5 5 5 5 5 5 5 6 5 5 5 6 6 6 6 5 5 5 5 5 5 5 5 5 6 6 6 5 5 5 5 5 5 5 5 5 5 5 5 4
6 6 5 4 4 4 5 4 5 5 5 5 4 4 4 4 4 4 4 4 4 4 4 4 4 4 5 5 6 6 5 5 5 5 5 5 5 5 4 4 5 4 4
6 6 5 5 4 4 4 3 4 4 4 4 3 3 3 3 3 3 3 3 3 3 3 3 4 4 4 5 5 6 5 5 5 5 5 5 4 4 4 4 4 4 4
6 5 5 4 4 3 3 3 3 4 3 3 3 3 2 2 2 2 2 2 2 2 2 2 3 3 3 4 4 5 5 5 4 4 4 5 4 4 4 3 4 4 4
5 5 4 4 3 3 2 2 2 3 3 3 3 2 2 2 2 2 2 1 1 1 2 2 2 2 3 3 4 5 5 4 4 4 4 4 4 4 3 3 4 4 4
5 4 4 4 3 3 2 1 2 4 4 3 3 2 1 1 1 1 1 1 0 1 1 2 1 1 2 3 3 4 4 4 4 3 3 3 4 4 3 4 4 4 4
5 4 4 4 3 2 1 1 2 3 3 3 2 2 1 1 1 1 1 1 1 1 1 1 1 1 2 2 3 3 4 3 3 3 3 3 3 3 3 3 3 3 3
5 5 4 4 3 3 2 0 1 2 3 3 3 2 2 2 1 1 1 2 1 1 1 1 1 1 1 2 2 3 3 3 3 2 3 2 2 2 2 2 2 3 3
5 4 4 4 3 3 3 1 1 2 2 3 3 3 2 2 2 2 2 2 2 1 1 1 1 1 1 1 2 2 3 2 2 2 2 2 2 2 2 2 2 3 3
5 4 3 3 3 2 3 2 2 2 2 3 3 4 4 3 3 3 3 3 3 2 2 1 1 2 2 2 2 2 3 2 2 2 2 2 2 2 2 3 3 3 3
5 4 4 4 4 3 3 3 2 3 4 4 4 4 5 5 5 5 4 4 4 3 3 2 2 2 2 3 3 3 3 3 3 3 2 3 3 3 3 3 4 4 4
6 5 6 5 5 5 5 5 4 4 5 5 5 5 6 6 6 6 6 5 5 5 4 3 3 2 3 3 3 3 4 4 4 3 3 4 4 4 4 4 5 5 5
7 6 6 6 5 5 5 6 6 5 5 6 6 6 6 6 6 6 6 6 6 6 5 5 4 4 4 4 4 4 5 5 5 4 4 4 5 5 5 5 5 5 5
7 7 7 6 6 6 6 6 5 5 6 7 7 8 8 8 8 8 7 7 7 7 7 7 6 5 5 5 5 5 6 6 5 5 5 5 6 6 6 6 6 6 6
8 8 8 7 7 7 7 7 7 7 7 8 8 8 9 9 8 9 9 8 7 8 9 8 7 7 7 7 7 7 7 8 7 6 7 7 7 7 8 8 8 7 8
9 9 9 8 8 8 8 8 8 9 8 9 9 9 9 9 9 10 10 9 10 10 10 10 9 9 9 9 9 9 9 9 9 8 8 9 9 9 9 10 10 9 9
10 10 10 10 9 9 9 9 9 10 10 9 9 9 9 10 11 11 11 11 11 12 12 11 11 11 11 11 11 11 10 10 11 11 11 11 11 11 11 11 12 12 11
Wind_Direction
73 80 83 83 84 83 81 80 77 74 75 76 75 78 80 78 78 79 83 88 88 89 92 94 94 93 93 92 90 87 85 82 82 83 82 79 79 77 75 81 85 88 91
69 78 80 82 84 83 81 80 77 75 77 79 75 77 77 79 83 82 81 82 83 85 88 90 90 90 88 88 87 83 78 79 80 82 84 82 78 77 77 83 86 88 90
67 75 80 84 84 83 82 81 80 80 81 79 76 73 74 77 78 78 80 79 80 83 85 86 83 82 85 84 84 79 75 77 77 78 79 78 76 77 78 83 87 89 91
71 76 82 85 85 85 83 83 82 80 80 78 75 73 75 75 77 78 80 78 79 80 80 77 77 80 82 83 79 76 73 71 69 69 71 73 74 77 77 79 81 83 86
75 81 85 84 86 86 85 85 84 80 79 79 80 74 72 74 73 74 73 75 78 77 76 74 75 77 80 81 77 73 70 65 63 64 64 67 70 76 76 76 76 80 85
83 86 87 83 86 88 87 87 85 83 81 82 83 78 78 78 76 74 74 77 81 80 77 77 78 77 74 74 73 69 67 65 61 63 63 62 65 66 72 71 71 76 82
91 90 90 87 86 89 90 89 87 83 80 81 81 79 84 82 75 74 78 79 78 76 77 77 75 74 68 66 67 63 64 65 61 59 58 57 58 60 64 67 66 69 73
93 93 92 90 90 92 93 92 91 86 84 81 79 81 83 80 77 75 76 76 78 80 78 73 72 71 63 58 58 59 62 62 55 55 57 58 58 58 64 64 65 64 69
91 94 94 92 91 95 97 94 92 89 87 85 81 82 84 83 80 74 73 75 81 82 78 72 69 67 60 55 55 56 58 56 50 51 54 56 56 57 59 59 60 62 64
88 90 93 91 96 104 105 100 96 94 92 90 89 86 83 80 78 74 70 69 75 79 76 71 64 59 56 52 50 51 53 52 50 48 50 54 55 55 58 56 57 58 57
81 85 88 89 94 102 105 106 101 100 100 96 95 90 84 84 80 76 67 67 73 73 71 67 54 49 49 48 48 45 46 47 46 50 55 55 53 53 55 51 50 51 49
75 78 84 84 87 100 108 115 116 118 116 111 107 101 92 91 84 80 69 69 69 70 68 60 53 50 48 45 44 44 47 51 53 51 54 53 50 50 49 45 44 44 47
71 73 76 74 78 92 112 124 135 141 136 129 123 118 112 102 98 97 93 84 76 71 62 57 55 50 48 44 39 38 47 50 47 47 52 52 48 46 44 43 39 41 47
57 62 68 67 70 80 104 144 161 158 152 146 140 124 122 118 126 135 145 122 81 54 44 45 53 45 38 41 33 32 38 41 41 42 50 49 46 39 39 43 44 44 42
46 55 59 59 59 63 82 129 173 169 162 159 148 136 121 117 141 153 161 151 59 11 28 31 56 51 33 31 24 25 33 40 40 40 46 45 43 42 44 46 42 40 41
41 52 55 51 50 47 63 114 167 175 181 180 182 176 160 137 139 157 182 195 257 298 358 19 36 32 20 16 15 20 22 33 36 39 38 33 33 36 43 44 33 26 31
31 38 43 43 39 27 18 11 204 188 193 199 208 211 203 201 198 205 202 215 240 284 293 312 4 347 338 348 5 8 9 20 24 28 28 26 23 23 26 19 11 14 17
12 20 29 30 28 18 4 344 229 203 203 216 225 230 227 223 223 217 214 222 228 254 271 262 288 281 308 321 343 349 349 358 3 7 9 11 5 5 359 355 360 358 355
351 356 3 357 359 1 348 331 265 242 235 236 240 240 241 239 234 239 230 227 234 248 250 246 247 257 296 308 313 324 327 330 335 340 341 343 344 331 322 324 327 337 337
331 328 328 323 317 318 319 318 288 257 248 247 247 246 239 243 244 248 243 240 240 239 241 236 241 264 291 303 303 302 306 311 308 317 321 319 318 318 309 303 305 311 317
317 316 312 313 306 303 300 300 290 268 251 251 252 254 247 247 247 248 250 247 245 238 236 235 244 259 284 293 295 291 294 295 296 303 305 307 306 305 304 299 298 300 305
302 299 295 298 297 296 296 295 292 280 262 259 259 259 255 254 253 251 254 249 244 240 235 237 247 255 271 280 284 286 286 287 288 292 295 303 301 295 296 297 293 293 297
289 292 284 280 283 286 291 293 298 286 271 266 266 260 261 257 255 253 252 249 245 243 243 243 249 257 264 271 275 279 280 283 284 285 286 292 292 289 290 294 293 290 292
281 285 285 281 280 280 287 292 288 283 273 268 268 266 261 255 256 251 250 249 248 249 248 245 249 253 259 267 271 275 278 281 278 279 282 287 291 289 287 291 291 288 289
278 280 281 279 278 279 282 287 285 283 281 275 272 262 257 253 256 253 252 248 248 251 250 249 250 253 256 264 270 274 275 275 273 273 278 281 283 286 287 289 289 286 287
277 277 276 272 271 274 279 284 284 282 280 275 269 260 256 256 257 257 255 251 250 252 252 252 251 255 257 261 267 270 272 272 270 271 275 278 281 282 284 286 287 284 284
Height
5875 5875 5875 5875 5875 5875 5875 5876 5876 5876 5877 5877 5878 5878 5879 5879 5880 5881 5881 5882 5882 5883 5883 5883 5883 5883 5884 5884 5885 5885 5885 5885 5885 5885 5885 5885 5884 5884 5884 5884 5884 5883 5883
5876 5876 5876 5876 5876 5877 5877 5878 5878 5878 5877 5879 5879 5880 5881 5881 5882 5883 5883 5883 5884 5884 5884 5885 5885 5885 5885 5886 5886 5886 5886 5886 5886 5886 5886 5885 5885 5885 5885 5884 5884 5884 5884
5878 5878 5878 5878 5878 5878 5879 5879 5880 5880 5880 5880 5881 5882 5883 5883 5884 5884 5885 5885 5885 5886 5886 5886 5886 5886 5887 5887 5887 5887 5887 5887 5887 5887 5886 5886 5886 5886 5886 5885 5885 5885 5885
5879 5879 5879 5879 5879 5880 5880 5881 5881 5882 5882 5882 5883 5883 5884 5885 5886 5886 5887 5887 5887 5887 5887 5888 5888 5888 5888 5888 5888 5888 5888 5888 5888 5887 5887 5887 5887 5887 5886 5886 5886 5886 5885
5880 5880 5880 5880 5880 5881 5881 5882 5883 5883 5884 5884 5884 5885 5886 5886 5887 5887 5888 5888 5888 5888 5889 5889 5889 5889 5889 5889 5889 5889 5889 5889 5888 5888 5888 5888 5888 5887 5887 5887 5886 5886 5886
5881 5881 5881 5881 5881 5882 5883 5883 5884 5884 5884 5885 5886 5886 5887 5888 5888 5888 5889 5889 5889 5890 5890 5890 5890 5890 5890 5890 5890 5890 5890 5889 5889 5889 5889 5888 5888 5888 5888 5887 5887 5887 5886
5882 5882 5882 5882 5882 5883 5884 5884 5884 5885 5886 5886 5887 5888 5888 5889 5889 5890 5890 5890 5891 5891 5891 5891 5891 5891 5891 5891 5891 5891 5890 5890 5890 5889 5889 5889 5889 5888 5888 5888 5887 5887 5887
5883 5883 5882 5883 5883 5884 5884 5885 5885 5886 5887 5887 5888 5889 5889 5890 5890 5891 5891 5891 5892 5892 5892 5892 5892 5892 5892 5892 5891 5891 5891 5891 5891 5890 5890 5890 5889 5889 5889 5888 5888 5887 5887
5883 5883 5883 5883 5884 5885 5885 5886 5886 5887 5888 5888 5889 5890 5890 5891 5891 5892 5892 5893 5893 5893 5893 5893 5893 5893 5893 5892 5892 5892 5892 5892 5891 5891 5891 5890 5890 5890 5889 5889 5889 5888 5888
5884 5884 5884 5884 5885 5885 5886 5886 5887 5887 5888 5889 5890 5890 5891 5892 5892 5893 5893 5893 5894 5894 5894 5894 5894 5894 5893 5893 5893 5893 5893 5892 5892 5892 5891 5891 5891 5890 5890 5890 5889 5889 5888
5885 5885 5885 5885 5885 5886 5886 5887 5888 5888 5889 5890 5890 5891 5892 5892 5893 5893 5894 5894 5894 5895 5895 5895 5895 5894 5894 5894 5894 5894 5893 5893 5893 5892 5892 5892 5891 5891 5891 5890 5890 5889 5889
5886 5886 5886 5886 5886 5886 5887 5887 5888 5889 5889 5890 5891 5892 5892 5893 5893 5894 5894 5895 5895 5895 5895 5895 5895 5895 5895 5895 5895 5895 5894 5894 5894 5893 5893 5892 5892 5892 5891 5891 5891 5890 5889
5887 5886 5886 5886 5887 5887 5887 5888 5888 5889 5889 5890 5891 5892 5892 5893 5893 5894 5894 5895 5895 5895 5896 5896 5896 5896 5896 5896 5896 5895 5895 5895 5894 5894 5894 5893 5893 5892 5892 5892 5891 5891 5890
5887 5887 5887 5887 5887 5887 5887 5888 5888 5889 5890 5890 5891 5892 5893 5893 5893 5894 5894 5895 5895 5896 5896 5896 5896 5896 5896 5896 5896 5896 5896 5895 5895 5895 5894 5894 5893 5893 5893 5892 5892 5891 5891
5888 5887 5887 5887 5887 5887 5888 5888 5888 5889 5890 5890 5891 5892 5893 5893 5893 5894 5894 5895 5895 5896 5896 5897 5897 5897 5897 5897 5897 5897 5896 5896 5895 5895 5895 5894 5894 5894 5893 5893 5893 5892 5891
5888 5888 5888 5888 5888 5888 5888 5888 5888 5889 5890 5890 5891 5892 5892 5893 5893 5894 5894 5895 5895 5896 5896 5896 5897 5897 5897 5897 5897 5897 5897 5896 5896 5896 5895 5895 5894 5894 5894 5894 5893 5893 5892
5889 5888 5888 5888 5888 5888 5888 5888 5889 5889 5889 5890 5891 5891 5892 5892 5893 5894 5894 5895 5895 5896 5896 5896 5897 5897 5897 5897 5897 5897 5897 5897 5896 5896 5895 5895 5895 5895 5894 5894 5893 5893 5893
5889 5889 5888 5888 5888 5888 5888 5888 5888 5889 5889 5890 5890 5891 5891 5892 5892 5893 5894 5894 5895 5895 5896 5896 5896 5897 5897 5897 5897 5897 5897 5897 5896 5896 5896 5895 5895 5895 5894 5894 5894 5893 5893
5889 5889 5889 5888 5888 5888 5888 5888 5888 5888 5889 5889 5890 5890 5891 5891 5892 5892 5893 5894 5894 5895 5896 5896 5896 5897 5897 5897 5897 5897 5896 5896 5896 5896 5896 5895 5895 5895 5894 5894 5894 5893 5893
5889 5889 5888 5888 5888 5888 5888 5887 5887 5888 5888 5888 5889 5889 5890 5890 5891 5892 5892 5893 5893 5894 5895 5895 5896 5896 5896 5896 5896 5896 5896 5896 5896 5896 5896 5895 5895 5895 5894 5894 5894 5893 5893
5888 5888 5888 5888 5887 5887 5887 5887 5887 5887 5887 5888 5888 5889 5889 5889 5890 5890 5891 5892 5893 5893 5894 5895 5895 5895 5896 5896 5896 5896 5896 5896 5895 5895 5895 5895 5894 5894 5894 5893 5893 5893 5892
5888 5887 5887 5887 5887 5887 5887 5886 5886 5886 5887 5887 5887 5887 5888 5888 5889 5889 5890 5891 5891 5892 5893 5894 5894 5895 5895 5895 5895 5895 5895 5896 5895 5895 5894 5894 5894 5893 5893 5893 5892 5892 5891
5886 5886 5886 5886 5886 5886 5886 5886 5886 5886 5886 5886 5886 5886 5886 5886 5887 5888 5888 5889 5890 5890 5891 5892 5893 5894 5894 5894 5894 5894 5894 5894 5894 5894 5893 5893 5893 5893 5892 5892 5891 5891 5891
5885 5885 5885 5885 5885 5885 5885 5885 5885 5885 5884 5884 5884 5884 5885 5885 5885 5886 5887 5887 5888 5889 5889 5890 5891 5892 5892 5893 5893 5893 5893 5893 5893 5893 5893 5892 5892 5891 5891 5891 5890 5890 5889
5882 5883 5883 5883 5884 5884 5884 5884 5883 5883 5883 5883 5883 5882 5883 5883 5884 5884 5885 5885 5886 5887 5887 5888 5889 5890 5890 5891 5891 5891 5891 5891 5891 5891 5891 5891 5890 5890 5889 5889 5888 5888 5888
5880 5880 5881 5881 5881 5882 5882 5882 5881 5881 5881 5881 5880 5881 5881 5881 5882 5882 5882 5883 5884 5884 5885 5886 5887 5887 5888 5888 5889 5889 5889 5889 5889 5889 5889 5888 5888 5888 5887 5887 5886 5886 5885